Time,TemperatureF,DewpointF,PressureIn,WindDirection,WindDirectionDegrees,WindSpeedMPH,WindSpeedGustMPH,Humidity,HourlyPrecipIn,Conditions,Clouds,dailyrainin,SoftwareType,DateUTC
2013-10-01 00:06:00,56.3,50.0,29.93,North,5,2.0,-999.0,79,-99.99,,,0.00,weatherlink.com 1.10,2013-10-01 07:06:00,
2013-10-01 00:21:00,55.6,49.0,29.93,North,5,0.0,-999.0,79,-99.99,,,0.00,weatherlink.com 1.10,2013-10-01 07:21:00,
2013-10-01 00:36:00,55.0,49.0,29.93,North,5,0.0,-999.0,79,-99.99,,,0.00,weatherlink.com 1.10,2013-10-01 07:36:00,
2013-10-01 00:51:00,54.5,48.0,29.93,North,5,0.0,-999.0,78,-99.99,,,0.00,weatherlink.com 1.10,2013-10-01 07:51:00,
2013-10-01 01:06:00,54.1,48.0,29.94,North,5,0.0,-999.0,79,-99.99,,,0.00,weatherlink.com 1.10,2013-10-01 08:06:00,
2013-10-01 01:21:00,53.6,47.0,29.93,North,5,0.0,-999.0,79,-99.99,,,0.00,weatherlink.com 1.10,2013-10-01 08:21:00,
2013-10-01 01:36:00,53.3,47.0,29.94,North,5,0.0,-999.0,80,-99.99,,,0.00,weatherlink.com 1.10,2013-10-01 08:36:00,
2013-10-01 01:51:00,52.9,47.0,29.94,North,5,0.0,-999.0,80,-99.99,,,0.00,weatherlink.com 1.10,2013-10-01 08:51:00,
2013-10-01 02:06:00,52.6,47.0,29.94,North,5,0.0,-999.0,81,-99.99,,,0.00,weatherlink.com 1.10,2013-10-01 09:06:00,
2013-10-01 02:21:00,52.3,47.0,29.94,North,5,0.0,-999.0,81,-99.99,,,0.00,weatherlink.com 1.10,2013-10-01 09:21:00,
2013-10-01 02:36:00,52.2,47.0,29.94,North,5,0.0,-999.0,82,-99.99,,,0.00,weatherlink.com 1.10,2013-10-01 09:36:00,
2013-10-01 02:51:00,51.9,47.0,29.93,North,5,0.0,-999.0,82,-99.99,,,0.00,weatherlink.com 1.10,2013-10-01 09:51:00,
2013-10-01 03:07:00,51.7,46.0,29.93,NW,322,2.0,-999.0,82,-99.99,,,0.00,weatherlink.com 1.10,2013-10-01 10:07:00,
2013-10-01 03:22:00,51.7,46.0,29.93,NW,322,1.0,-999.0,82,-99.99,,,0.00,weatherlink.com 1.10,2013-10-01 10:22:00,
2013-10-01 03:37:00,51.4,46.0,29.93,NW,322,0.0,-999.0,83,-99.99,,,0.00,weatherlink.com 1.10,2013-10-01 10:37:00,
2013-10-01 03:52:00,51.1,46.0,29.93,NW,322,0.0,-999.0,83,-99.99,,,0.00,weatherlink.com 1.10,2013-10-01 10:52:00,
2013-10-01 04:07:00,50.8,46.0,29.93,NW,322,0.0,-999.0,83,-99.99,,,0.00,weatherlink.com 1.10,2013-10-01 11:07:00,
2013-10-01 04:22:00,50.2,45.0,29.93,NW,322,0.0,-999.0,83,-99.99,,,0.00,weatherlink.com 1.10,2013-10-01 11:22:00,
2013-10-01 04:37:00,49.6,45.0,29.93,NW,322,0.0,-999.0,84,-99.99,,,0.00,weatherlink.com 1.10,2013-10-01 11:37:00,
2013-10-01 04:52:00,48.8,44.0,29.93,NW,322,0.0,-999.0,84,-99.99,,,0.00,weatherlink.com 1.10,2013-10-01 11:52:00,
2013-10-01 05:22:00,47.7,44.0,29.94,NW,322,0.0,-999.0,86,-99.99,,,0.00,weatherlink.com 1.10,2013-10-01 12:22:00,
2013-10-01 05:38:00,47.1,43.0,29.94,NW,322,0.0,-999.0,86,-99.99,,,0.00,weatherlink.com 1.10,2013-10-01 12:38:00,
2013-10-01 05:53:00,46.2,43.0,29.94,NW,322,0.0,-999.0,87,-99.99,,,0.00,weatherlink.com 1.10,2013-10-01 12:53:00,
2013-10-01 06:07:00,45.8,42.0,29.94,NW,322,0.0,-999.0,87,-99.99,,,0.00,weatherlink.com 1.10,2013-10-01 13:07:00,
2013-10-01 06:22:00,45.4,42.0,29.95,NW,322,0.0,-999.0,88,-99.99,,,0.00,weatherlink.com 1.10,2013-10-01 13:22:00,
2013-10-01 06:37:00,44.9,42.0,29.95,NW,322,0.0,-999.0,88,-99.99,,,0.00,weatherlink.com 1.10,2013-10-01 13:37:00,
2013-10-01 06:52:00,44.5,42.0,29.95,NW,322,0.0,-999.0,89,-99.99,,,0.00,weatherlink.com 1.10,2013-10-01 13:52:00,
2013-10-01 07:07:00,44.2,41.0,29.96,NW,322,0.0,-999.0,89,-99.99,,,0.00,weatherlink.com 1.10,2013-10-01 14:07:00,
2013-10-01 07:22:00,43.9,41.0,29.96,NW,322,0.0,-999.0,90,-99.99,,,0.00,weatherlink.com 1.10,2013-10-01 14:22:00,
2013-10-01 07:37:00,43.8,41.0,29.96,NW,322,0.0,-999.0,90,-99.99,,,0.00,weatherlink.com 1.10,2013-10-01 14:37:00,
2013-10-01 07:52:00,44.5,42.0,29.97,NW,322,0.0,-999.0,92,-99.99,,,0.00,weatherlink.com 1.10,2013-10-01 14:52:00,
2013-10-01 08:08:00,47.1,45.0,29.97,NW,322,0.0,-999.0,93,-99.99,,,0.00,weatherlink.com 1.10,2013-10-01 15:08:00,
2013-10-01 08:23:00,48.8,47.0,29.98,NW,322,1.0,-999.0,93,-99.99,,,0.00,weatherlink.com 1.10,2013-10-01 15:23:00,
2013-10-01 08:38:00,49.9,48.0,29.98,NW,322,0.0,-999.0,92,-99.99,,,0.00,weatherlink.com 1.10,2013-10-01 15:38:00,
2013-10-01 08:53:00,51.6,49.0,29.98,NW,322,0.0,-999.0,90,-99.99,,,0.00,weatherlink.com 1.10,2013-10-01 15:53:00,
2013-10-01 09:07:00,53.1,49.0,29.98,NW,322,0.0,-999.0,86,-99.99,,,0.00,weatherlink.com 1.10,2013-10-01 16:07:00,
2013-10-01 09:22:00,55.3,50.0,29.98,NW,322,0.0,-999.0,83,-99.99,,,0.00,weatherlink.com 1.10,2013-10-01 16:22:00,
2013-10-01 09:37:00,57.6,50.0,29.98,NW,322,1.0,-999.0,77,-99.99,,,0.00,weatherlink.com 1.10,2013-10-01 16:37:00,
2013-10-01 09:52:00,59.0,50.0,29.98,NW,322,0.0,-999.0,72,-99.99,,,0.00,weatherlink.com 1.10,2013-10-01 16:52:00,
2013-10-01 10:08:00,60.9,51.0,29.98,NE,53,0.0,-999.0,70,-99.99,,,0.00,weatherlink.com 1.10,2013-10-01 17:08:00,
2013-10-01 10:23:00,62.0,51.0,29.98,NE,53,0.0,-999.0,68,-99.99,,,0.00,weatherlink.com 1.10,2013-10-01 17:23:00,
2013-10-01 10:38:00,63.4,50.0,29.98,NE,49,3.0,-999.0,63,-99.99,,,0.00,weatherlink.com 1.10,2013-10-01 17:38:00,
2013-10-01 10:54:00,65.3,52.0,29.98,NNE,27,2.0,-999.0,62,-99.99,,,0.00,weatherlink.com 1.10,2013-10-01 17:54:00,
2013-10-01 11:08:00,66.8,51.0,29.97,NE,40,0.0,-999.0,58,-99.99,,,0.00,weatherlink.com 1.10,2013-10-01 18:08:00,
2013-10-01 11:23:00,68.1,52.0,29.97,NE,34,2.0,-999.0,56,-99.99,,,0.00,weatherlink.com 1.10,2013-10-01 18:23:00,
2013-10-01 11:38:00,68.9,52.0,29.96,ESE,105,0.0,-999.0,55,-99.99,,,0.00,weatherlink.com 1.10,2013-10-01 18:38:00,
2013-10-01 11:53:00,70.3,52.0,29.96,SE,133,0.0,-999.0,53,-99.99,,,0.00,weatherlink.com 1.10,2013-10-01 18:53:00,
2013-10-01 12:23:00,73.3,52.0,29.96,ENE,78,1.0,-999.0,47,-99.99,,,0.00,weatherlink.com 1.10,2013-10-01 19:23:00,
2013-10-01 12:38:00,74.0,51.0,29.95,WSW,252,0.0,-999.0,45,-99.99,,,0.00,weatherlink.com 1.10,2013-10-01 19:38:00,
2013-10-01 12:53:00,74.9,51.0,29.94,South,182,0.0,-999.0,43,-99.99,,,0.00,weatherlink.com 1.10,2013-10-01 19:53:00,
2013-10-01 13:08:00,75.6,51.0,29.94,West,265,0.0,-999.0,42,-99.99,,,0.00,weatherlink.com 1.10,2013-10-01 20:08:00,
2013-10-01 13:23:00,76.1,51.0,29.94,ENE,71,0.0,-999.0,42,-99.99,,,0.00,weatherlink.com 1.10,2013-10-01 20:23:00,
2013-10-01 13:38:00,77.2,50.0,29.93,NW,314,2.0,-999.0,39,-99.99,,,0.00,weatherlink.com 1.10,2013-10-01 20:38:00,
2013-10-01 13:53:00,78.1,52.0,29.93,NNE,22,0.0,-999.0,40,-99.99,,,0.00,weatherlink.com 1.10,2013-10-01 20:53:00,
2013-10-01 14:09:00,79.0,50.0,29.92,NNW,333,0.0,-999.0,36,-99.99,,,0.00,weatherlink.com 1.10,2013-10-01 21:09:00,
2013-10-01 14:24:00,80.1,50.0,29.91,NE,53,2.0,-999.0,35,-99.99,,,0.00,weatherlink.com 1.10,2013-10-01 21:24:00,
2013-10-01 14:39:00,79.6,51.0,29.91,NE,42,2.0,-999.0,37,-99.99,,,0.00,weatherlink.com 1.10,2013-10-01 21:39:00,
2013-10-01 14:54:00,80.3,50.0,29.90,NW,306,0.0,-999.0,35,-99.99,,,0.00,weatherlink.com 1.10,2013-10-01 21:54:00,
2013-10-01 15:09:00,81.1,49.0,29.90,NNE,24,0.0,-999.0,33,-99.99,,,0.00,weatherlink.com 1.10,2013-10-01 22:09:00,
2013-10-01 15:24:00,81.1,49.0,29.90,NE,40,0.0,-999.0,32,-99.99,,,0.00,weatherlink.com 1.10,2013-10-01 22:24:00,
2013-10-01 15:39:00,81.2,49.0,29.89,NW,325,0.0,-999.0,32,-99.99,,,0.00,weatherlink.com 1.10,2013-10-01 22:39:00,
2013-10-01 15:54:00,82.0,48.0,29.89,NW,324,0.0,-999.0,31,-99.99,,,0.00,weatherlink.com 1.10,2013-10-01 22:54:00,
2013-10-01 16:09:00,82.4,48.0,29.89,NW,324,0.0,-999.0,30,-99.99,,,0.00,weatherlink.com 1.10,2013-10-01 23:09:00,
2013-10-01 16:24:00,82.4,47.0,29.88,West,267,0.0,-999.0,29,-99.99,,,0.00,weatherlink.com 1.10,2013-10-01 23:24:00,
2013-10-01 16:39:00,82.4,45.0,29.88,NW,315,0.0,-999.0,27,-99.99,,,0.00,weatherlink.com 1.10,2013-10-01 23:39:00,
2013-10-01 16:54:00,82.6,47.0,29.88,NW,315,0.0,-999.0,29,-99.99,,,0.00,weatherlink.com 1.10,2013-10-01 23:54:00,
2013-10-01 17:09:00,82.6,46.0,29.87,NW,315,0.0,-999.0,28,-99.99,,,0.00,weatherlink.com 1.10,2013-10-02 00:09:00,
2013-10-01 17:24:00,82.6,46.0,29.86,NE,55,0.0,-999.0,28,-99.99,,,0.00,weatherlink.com 1.10,2013-10-02 00:24:00,
2013-10-01 17:39:00,82.0,46.0,29.86,NE,55,0.0,-999.0,28,-99.99,,,0.00,weatherlink.com 1.10,2013-10-02 00:39:00,
2013-10-01 17:54:00,81.4,47.0,29.86,WNW,299,0.0,-999.0,30,-99.99,,,0.00,weatherlink.com 1.10,2013-10-02 00:54:00,
2013-10-01 18:10:00,79.9,48.0,29.87,WNW,299,0.0,-999.0,33,-99.99,,,0.00,weatherlink.com 1.10,2013-10-02 01:10:00,
2013-10-01 18:25:00,77.9,50.0,29.87,WNW,299,3.0,-999.0,37,-99.99,,,0.00,weatherlink.com 1.10,2013-10-02 01:25:00,
2013-10-01 18:40:00,75.4,51.0,29.87,WNW,292,0.0,-999.0,42,-99.99,,,0.00,weatherlink.com 1.10,2013-10-02 01:40:00,
2013-10-01 18:55:00,73.3,51.0,29.88,SE,136,0.0,-999.0,46,-99.99,,,0.00,weatherlink.com 1.10,2013-10-02 01:55:00,
2013-10-01 19:09:00,71.3,51.0,29.88,SE,134,0.0,-999.0,49,-99.99,,,0.00,weatherlink.com 1.10,2013-10-02 02:09:00,
2013-10-01 19:24:00,69.4,51.0,29.88,SE,134,0.0,-999.0,52,-99.99,,,0.00,weatherlink.com 1.10,2013-10-02 02:24:00,
2013-10-01 19:39:00,67.4,50.0,29.88,SE,134,0.0,-999.0,54,-99.99,,,0.00,weatherlink.com 1.10,2013-10-02 02:39:00,
2013-10-01 19:54:00,64.8,50.0,29.89,SE,134,0.0,-999.0,60,-99.99,,,0.00,weatherlink.com 1.10,2013-10-02 02:54:00,
2013-10-01 20:10:00,62.7,50.0,29.90,SE,134,0.0,-999.0,64,-99.99,,,0.00,weatherlink.com 1.10,2013-10-02 03:10:00,
2013-10-01 20:25:00,61.5,50.0,29.90,SE,134,0.0,-999.0,66,-99.99,,,0.00,weatherlink.com 1.10,2013-10-02 03:25:00,
2013-10-01 20:40:00,60.1,50.0,29.91,SE,134,0.0,-999.0,69,-99.99,,,0.00,weatherlink.com 1.10,2013-10-02 03:40:00,
2013-10-01 20:55:00,59.0,50.0,29.91,SE,134,0.0,-999.0,72,-99.99,,,0.00,weatherlink.com 1.10,2013-10-02 03:55:00,
2013-10-01 21:10:00,58.1,49.0,29.91,SE,134,0.0,-999.0,73,-99.99,,,0.00,weatherlink.com 1.10,2013-10-02 04:10:00,
2013-10-01 21:25:00,57.3,49.0,29.91,SE,134,0.0,-999.0,75,-99.99,,,0.00,weatherlink.com 1.10,2013-10-02 04:25:00,
2013-10-01 21:40:00,56.6,49.0,29.91,SE,134,0.0,-999.0,76,-99.99,,,0.00,weatherlink.com 1.10,2013-10-02 04:40:00,
2013-10-01 21:55:00,55.9,49.0,29.91,SE,134,0.0,-999.0,78,-99.99,,,0.00,weatherlink.com 1.10,2013-10-02 04:55:00,
2013-10-01 22:10:00,55.3,49.0,29.92,SE,134,0.0,-999.0,79,-99.99,,,0.00,weatherlink.com 1.10,2013-10-02 05:10:00,
2013-10-01 22:25:00,54.7,49.0,29.91,SE,134,0.0,-999.0,80,-99.99,,,0.00,weatherlink.com 1.10,2013-10-02 05:25:00,
2013-10-01 22:40:00,54.4,49.0,29.92,SE,134,0.0,-999.0,81,-99.99,,,0.00,weatherlink.com 1.10,2013-10-02 05:40:00,
2013-10-01 22:55:00,53.8,48.0,29.92,SE,134,0.0,-999.0,82,-99.99,,,0.00,weatherlink.com 1.10,2013-10-02 05:55:00,
2013-10-01 23:10:00,53.3,48.0,29.92,SE,134,0.0,-999.0,82,-99.99,,,0.00,weatherlink.com 1.10,2013-10-02 06:10:00,
2013-10-01 23:25:00,52.8,47.0,29.93,SE,134,0.0,-999.0,82,-99.99,,,0.00,weatherlink.com 1.10,2013-10-02 06:25:00,
2013-10-01 23:40:00,52.2,48.0,29.92,SE,134,0.0,-999.0,84,-99.99,,,0.00,weatherlink.com 1.10,2013-10-02 06:40:00,
2013-10-01 23:55:00,51.9,48.0,29.92,SE,134,0.0,-999.0,85,-99.99,,,0.00,weatherlink.com 1.10,2013-10-02 06:55:00,